Location: *
(32.8140°S, 174.6161°E)
Time: 14:29:10
(UTC+00:00)

OAO 2 Rocket - Pass Details

Date: 10 December 2019
Orbit: 676 x 746 km, 35.0° (Epoch: 17 January)

Event Time Altitude Azimuth Distance (km) Brightness Sun altitude
Exits shadow 15:46:43 23° 307° (NW) 1,559 4.5 -14.7°
Maximum altitude 15:50:00 62° 21° (NNE) 833 3.6 -14.2°
Drops below altitude 10° 15:55:13 10° 101° (E) 2,236 6.9 -13.3°
Sets 15:57:40 0° 104° (ESE) 3,149 8.0 -12.9°
